Location: Staunton
(38.1490°N, 79.0720°W)
Time: 02:37:57
(UTC-04:00)

ISS - Pass Details

Date: 24 May 2019
Orbit: 408 x 418 km, 51.6° (Epoch: 27 May)

Event Time Altitude Azimuth Distance (km) Brightness Sun altitude
Rises 21:11:59 0° 280° (W) 2,341 1.4 -8.3°
Reaches altitude 10° 21:14:53 10° 308° (NW) 1,484 0.7 -8.7°
Maximum altitude 21:16:40 14° 340° (NNW) 1,285 -0.4 -9.0°
Drops below altitude 10° 21:18:27 10° 13° (NNE) 1,489 -0.7 -9.3°
Sets 21:21:22 0° 41° (NE) 2,356 0.0 -9.8°
